Regional Weather Roundup
Issued by NWS

Home | Current Version | Previous Version | Text Only | Print | Product List | Glossary Off
Versions: 1 2 3 4 5 6 7 8 9 10 11 12 13 14 15 16 17 18 19 20 21 22 23 24 25 26 27 28 29 30 31 32 33 34 35 36 37 38 39 40 41 42 43 44 45 46 47 48 49 50

431
ASUS43 KDMX 301708
RWRIA

WEATHER ROUNDUP FOR IOWA
NATIONAL WEATHER SERVICE DES MOINES IA
1200 PM CDT TUE AUG 30 2016

NOTE: "FAIR" INDICATES FEW OR NO CLOUDS BELOW 12,000 FEET WITH NO
SIGNIFICANT WEATHER AND/OR OBSTRUCTIONS TO VISIBILITY.

* - THESE STATIONS ARE NOT NWS STATIONS...THUS NOT UNDER NWS
QUALITY CONTROL.  THEY ALSO DO NOT REPORT WEATHER SUCH
AS PRECIPITATION OR FOG.

IAZ001>003-012>014-020>022-031>034-043>046-301800-
   NORTHWEST IOWA

CITY           SKY/WX    TMP DP  RH WIND       PRES   REMARKS
CARROLL *      CLOUDY    73  70  88 NW3       30.18R
CHEROKEE *     CLOUDY    74  69  82 CALM      30.21F
DENISON *      CLOUDY    73  70  88 W6        30.18R
LE MARS *      MOSUNNY   77  68  73 S6        30.22R
ORANGE CITY *  MOSUNNY   75  66  73 SW5       30.22S
SHELDON *      CLOUDY    77  70  78 SW3       30.21S
SIOUX CITY     MOSUNNY   77  69  76 W6        30.20F
SPENCER        CLOUDY    76  68  76 W7        30.22R
STORM LAKE *     N/A     75  68  78 NW10      30.21S
$$

IAZ055>058-069>071-079>083-090>094-301800-
   SOUTHWEST IOWA

CITY           SKY/WX    TMP DP  RH WIND       PRES   REMARKS
ATLANTIC *     CLOUDY    73  68  83 NE3       30.20F
AUDUBON *      DRIZZLE   73  66  78 CALM      30.21F
CLARINDA *       N/A     73  72  94 MISG      30.22F
COUNCIL BLFS * PTSUNNY   73  70  88 NE5       30.22F
CRESTON *      CLOUDY    75  68  78 CALM      30.22F
HARLAN  *      CLOUDY    73  68  83 S5        30.24F
LAMONI         PTSUNNY   76  71  85 W7        30.20S
RED OAK *      CLOUDY    75  70  83 CALM      30.21S
SHENANDOAH *   PTSUNNY   75 -35   1 VRB5      30.21F
$$

IAZ047>049-059>061-072>074-084-301800-
   CENTRAL IOWA

CITY           SKY/WX    TMP DP  RH WIND       PRES   REMARKS
AMES           MOSUNNY   77  72  84 W7        30.17R
ANKENY *         N/A    N/A N/A N/A MISG        N/A
BOONE *        MOSUNNY   75  70  83 W6        30.18R
CHARITON *       N/A     77  72  83 MISG      30.17F
DES MOINES     CLOUDY    78  70  76 VRB3      30.16F HX  80
GRINNELL*      MOSUNNY   75  69  82 CALM      30.17F
KNOXVILLE *    CLOUDY    77  70  78 VRB5      30.15F
MARSHALLTOWN   CLOUDY    78  73  84 NW5       30.17R HX  81
NEWTON *       MOSUNNY   75  73  94 S7        30.14F
PERRY *        LGT RAIN  74  72  92 W6        30.17F
$$

IAZ004>006-015-016-023>025-035-036-301800-
   NORTH CENTRAL IOWA

CITY           SKY/WX    TMP DP  RH WIND       PRES   REMARKS
ALGONA *       CLOUDY    73  68  83 N10       30.22S
ESTHERVILLE    CLOUDY    73  68  84 NE7       30.23S
FORT DODGE *   CLOUDY    73  68  83 N9        30.21R
MASON CITY     CLOUDY    75  68  78 N10       30.21S
FOREST CITY *    N/A     73  66  78 N13       30.22R
WEBSTER CITY * CLOUDY    75  72  88 N7        30.18R
IOWA FALLS *   PTSUNNY   76  71  84 CALM      30.20S
$$

IAZ007>011-017>019-026>030-037>042-050>054-066-301800-
   NORTHEAST IOWA

CITY           SKY/WX    TMP DP  RH WIND       PRES   REMARKS
CEDAR RAPIDS   MOSUNNY   78  74  87 S7        30.15S HX  81
CHARLES CITY * CLOUDY    75  73  94 VRB6      30.20S
CLINTON *      CLOUDY    78  71  79 SW3       30.15S HX  80
DECORAH *      CLOUDY    77  68  73 N5        30.17F
DUBUQUE        MOSUNNY   78  71  79 W3        30.16S HX  80
MONTICELLO *   PTSUNNY   79  72  78 CALM      30.15S HX  82
OELWEIN *      MOSUNNY   77  70  78 NW3       30.18S
WATERLOO       CLOUDY    77  69  76 NW5       30.16S
$$

IAZ064-065-067-068-078-301800-
   EAST CENTRAL IOWA

CITY           SKY/WX    TMP DP  RH WIND       PRES   REMARKS
DAVENPORT      MOSUNNY   76  71  85 W5        30.15F
IOWA CITY      CLOUDY    77  72  84 W5        30.16F
MT. PLEASANT * CLOUDY    78  76  92 SW3       30.16F HX  81
QUAD CITIES    MOSUNNY   79  70  74 W5        30.14S HX  82
$$

IAZ062-063-075>077-085>089-095>099-301800-
   SOUTHEAST IOWA

CITY           SKY/WX    TMP DP  RH WIND       PRES   REMARKS
BURLINGTON     CLOUDY    77  73  87 SW5       30.16R
FAIRFIELD *    CLOUDY    75  68  78 SW3       30.16S
FORT MADISON * CLOUDY    75  72  88 CALM      30.17S
KEOKUK *       CLOUDY    75  72  88 W6        30.16R
OSKALOOSA *    LGT RAIN  72  71  95 CALM      30.17S
CENTERVILLE *    N/A     79  72  78 CALM      30.18F HX  82
OTTUMWA        CLOUDY    74  70  87 W5        30.16S
WASHINGTON *   MOSUNNY   75  72  88 SW5       30.17S
$$

ABBREVIATIONS USED IN REMARKS
   TC - TEMPERATURES IN CELSIUS
  WCI - WIND CHILL INDEX
   HX - HEAT INDEX
  VSB - VISIBILITY
$$





USA.gov is the U.S. government's official web portal to all federal, state and local government web resources and services.